Weather in Nadvornaya

Ukraine / Ivano-Frankovsk District     48˚37′31″N   24˚34′22″E
temp.,
°C
wind,
m/s
gust,
m/s
humid.,
%
clouds,
%
prec.,
mm/h
press.,
hPa
HPBL,
m
28 november, sat
sat2823:00+1˚w1296100 0.3 102369
02:00+1˚sw1291100 0.7 102289
05:00+1˚ese0199100 1.0 102181
08:00+1˚n1299100 3.4 1021100
11:00+1˚nne129299 1.2 1020224
14:00+2˚nnw257899 2.9 1020778
17:00−1˚nnw129160 0.6 102053
20:00−2˚ssw229246 0.8 102033
29 november, sun
sun2923:00−2˚wsw128249 0.0 102122
02:00−2˚wnw129674 0.2 1021127
05:00−3˚nnw019796 0.3 102048
08:00−2˚se119698 1.1 102174
11:00−1˚ese1187100 0.2 1021295
14:00−1˚ne2387100 0.3 1021341
17:00−2˚ne1298100 0.9 102190
20:00−3˚wnw019791 1.5 102228
30 november, mon
mon3023:00−4˚sw119591 0.1 102322
02:00−5˚wsw129286 0.1 102421
05:00−5˚sw119033 0.0 102521
08:00−5˚wsw119258 0.0 102721
11:00−2˚nnw128585 0.0 1028370
14:00−1˚nnw228084 0.1 1028535
17:00−2˚nne118599 0.0 102968
20:00−4˚nne018499 0.0 103032
1 december, tue
tue123:00−5˚ssw228760 0.0 103037
02:00−6˚ssw128736 0.0 103021
05:00−6˚s12830 0.0 102921
08:00−7˚sse22820 0.0 102929
11:00−3˚ese23750 0.0 1028214
14:00−2˚ese24800 0.0 1026249
17:00−5˚se22930 0.0 102648
20:00−6˚se22920 0.0 102748
2 december, wed
wed223:00−6˚se22890 0.0 102740
02:00−7˚se12850 0.0 102731
05:00−7˚se12810 0.0 102628
08:00−8˚se12770 0.0 102726
11:00−4˚ese23700 0.0 1026200
14:00−2˚ese23770 0.0 1025263
17:00−6˚sse22930 0.0 102526
20:00−6˚se229415 0.0 102655